SUCHAI

Last updated on Fri Oct 06 2023 00:03:38 GMT+0000 (Coordinated Universal Time)

1 42788U 17036Z 23278.59754884 .09414560 23442-5 12208-2 0 9992 2 42788 97.0957 322.5026 0009064 262.4914 97.5354 16.35699058350659

Satellite not in orbit

SUCHAI